Date String (YYYY-MM-DD hh:mm:ss) UTC,Instrument flags,Ambient pressure (hPa),Sample flow (lpm),Bypass flow (lpm),Sample temperature (°C),Ambient temperature (°C),ASC tube jacket temperature (°C),LED temperature (°C),Box temperature (°C),Sample RH (%),Span deviation,Mass concentration (μg/m³),Mass concentration (μg/m³),Mass concentration (μg/m³)
DateTimeUTC,F1_M11,P_M11,Q1_M11,Q2_M11,T1_M11,T2_M11,T3_M11,T4_M11,T5_M11,U1_M11,ZSPAN_M11,X0_M11,X2_M11,X1_M11
2021-12-10 18:00:00,,0813.2,5.01,0.00,22.4,21.6,00.0,31.5,24.2,14.6,0000.0,0009.69,0004.60,0003.71
2021-12-10 18:01:00,,0813.2,5.00,0.00,22.4,21.6,00.0,31.5,24.2,14.4,0000.0,0009.71,0004.60,0003.70
2021-12-10 18:02:00,,0813.2,4.99,0.00,22.4,21.5,00.0,31.5,24.1,14.2,0000.0,0009.62,0004.59,0003.70
2021-12-10 18:03:00,,0813.2,5.00,0.00,22.4,21.6,00.0,31.5,24.2,14.5,0000.0,0009.99,0004.60,0003.71
2021-12-10 18:04:00,,0813.2,5.01,0.00,22.4,21.6,00.0,31.5,24.2,14.4,0000.0,0009.93,0004.59,0003.71
2021-12-10 18:05:00,,0813.1,5.00,0.00,22.4,21.7,00.0,31.5,24.2,14.2,0000.0,0009.68,0004.60,0003.71
2021-12-10 18:06:00,,0813.1,4.99,0.00,22.5,21.7,00.0,31.5,24.2,14.3,0000.0,0009.48,0004.61,0003.73
2021-12-10 18:07:00,,0813.1,5.01,0.00,22.5,21.7,00.0,31.5,24.2,14.3,0000.0,0009.40,0004.62,0003.75
2021-12-10 18:08:00,,0813.1,5.00,0.00,22.4,21.7,00.0,31.5,24.2,14.2,0000.0,0009.78,0004.63,0003.77
2021-12-10 18:09:00,,0813.1,5.00,0.00,22.4,21.8,00.0,31.5,24.1,14.7,0000.0,0009.93,0004.70,0003.78
2021-12-10 18:10:00,,0813.1,5.00,0.00,22.4,21.8,00.0,31.5,24.2,14.4,0000.0,0010.24,0004.74,0003.78
2021-12-10 18:11:00,,0813.1,4.99,0.00,22.5,21.8,00.0,31.5,24.2,14.3,0000.0,0010.27,0004.78,0003.79
2021-12-10 18:12:00,,0813.1,5.00,0.00,22.5,21.8,00.0,31.5,24.2,14.3,0000.0,0010.39,0004.78,0003.81
2021-12-10 18:13:00,,0813.1,5.01,0.00,22.5,21.9,00.0,31.5,24.2,14.8,0000.0,0011.00,0004.80,0003.83
2021-12-10 18:14:00,,0813.1,5.00,0.00,22.5,21.8,00.0,31.5,24.2,14.5,0000.0,0010.80,0004.83,0003.84
2021-12-10 18:15:00,,0813.1,4.99,0.00,22.5,21.8,00.0,31.5,24.2,14.3,0000.0,0011.91,0004.87,0003.86
2021-12-10 18:16:00,,0813.1,5.01,0.00,22.5,21.8,00.0,31.5,24.2,14.4,0000.0,0012.92,0004.86,0003.87
2021-12-10 18:17:00,,0813.1,4.99,0.00,22.5,21.8,00.0,31.5,24.3,14.5,0000.0,0013.40,0004.84,0003.87
2021-12-10 18:18:00,,0813.1,5.00,0.00,22.5,21.9,00.0,31.5,24.2,14.1,0000.0,0013.23,0004.81,0003.86
2021-12-10 18:19:00,,0813.1,5.00,0.00,22.5,21.9,00.0,31.5,24.2,14.0,0000.0,0012.82,0004.79,0003.85
2021-12-10 18:20:00,,0813.1,4.99,0.00,22.5,21.8,00.0,31.5,24.2,14.0,0000.0,0012.76,0004.76,0003.84
2021-12-10 18:21:00,,0813.0,5.01,0.00,22.5,21.9,00.0,31.5,24.3,14.1,0000.0,0012.87,0004.75,0003.84
2021-12-10 18:22:00,,0813.0,5.00,0.00,22.5,21.9,00.0,31.5,24.2,14.1,0000.0,0012.96,0004.73,0003.85
2021-12-10 18:23:00,,0813.1,5.01,0.00,22.5,21.9,00.0,31.5,24.3,14.2,0000.0,0012.93,0004.75,0003.85
2021-12-10 18:24:00,,0813.1,5.00,0.00,22.5,21.9,00.0,31.5,24.3,14.5,0000.0,0012.78,0004.77,0003.85
2021-12-10 18:25:00,,0813.1,4.99,0.00,22.5,21.9,00.0,31.5,24.4,14.6,0000.0,0013.13,0004.76,0003.85
2021-12-10 18:26:00,,0813.1,5.01,0.00,22.6,21.9,00.0,31.5,24.4,14.2,0000.0,0012.03,0004.79,0003.87
2021-12-10 18:27:00,,0813.1,5.00,0.00,22.6,22.0,00.0,31.5,24.4,14.1,0000.0,0011.01,0004.79,0003.87
2021-12-10 18:28:00,,0813.0,4.99,0.00,22.6,22.0,00.0,31.5,24.4,14.0,0000.0,0011.59,0004.84,0003.87
2021-12-10 18:29:00,,0813.1,5.00,0.00,22.7,22.1,00.0,31.5,24.5,13.9,0000.0,0012.34,0004.93,0003.89
2021-12-10 18:30:00,,0813.1,4.99,0.00,22.7,22.1,00.0,31.6,24.5,14.0,0000.0,0012.55,0005.00,0003.90
2021-12-10 18:31:00,,0813.1,5.01,0.00,22.7,22.1,00.0,31.6,24.5,14.2,0000.0,0012.58,0005.02,0003.91
2021-12-10 18:32:00,,0812.9,5.01,0.00,22.7,22.1,00.0,31.6,24.6,14.4,0000.0,0012.48,0005.04,0003.91
2021-12-10 18:33:00,,0812.9,5.00,0.00,22.7,22.1,00.0,31.6,24.6,13.9,0000.0,0013.42,0005.08,0003.90
2021-12-10 18:34:00,,0813.3,5.00,0.00,22.7,22.1,00.0,31.6,24.5,13.9,0000.0,0013.60,0005.03,0003.89
2021-12-10 18:35:00,,0812.9,5.00,0.00,22.7,22.1,00.0,31.6,24.5,13.8,0000.0,0013.94,0005.00,0003.89
2021-12-10 18:36:00,,0812.9,5.01,0.00,22.7,22.1,00.0,31.6,24.5,13.7,0000.0,0013.44,0004.99,0003.88
2021-12-10 18:37:00,,0812.8,4.99,0.00,22.7,22.1,00.0,31.6,24.5,13.7,0000.0,0013.41,0004.94,0003.86
2021-12-10 18:38:00,,0812.9,5.01,0.00,22.7,22.1,00.0,31.7,24.5,13.6,0000.0,0013.32,0004.88,0003.84
2021-12-10 18:39:00,,0812.9,4.99,0.00,22.8,22.1,00.0,31.7,24.5,13.4,0000.0,0012.35,0004.83,0003.83
2021-12-10 18:40:00,,0812.9,5.01,0.00,22.8,22.2,00.0,31.7,24.6,13.5,0000.0,0011.50,0004.77,0003.81
2021-12-10 18:41:00,,0812.9,5.00,0.00,22.8,22.2,00.0,31.7,24.6,14.0,0000.0,0011.34,0004.72,0003.79
2021-12-10 18:42:00,,0812.9,5.01,0.00,22.8,22.2,00.0,31.7,24.6,13.6,0000.0,0013.02,0004.68,0003.77
2021-12-10 18:43:00,,0812.8,5.01,0.00,22.8,22.2,00.0,31.7,24.6,13.2,0000.0,0013.72,0004.64,0003.76
2021-12-10 18:44:00,,0812.9,4.98,0.00,22.8,22.2,00.0,31.7,24.6,13.2,0000.0,0014.34,0004.60,0003.74
2021-12-10 18:45:00,,0812.9,5.00,0.00,22.8,22.2,00.0,31.7,24.6,13.3,0000.0,0014.09,0004.56,0003.73
2021-12-10 18:46:00,,0812.9,5.00,0.00,22.8,22.2,00.0,31.7,24.7,13.4,0000.0,0013.31,0004.56,0003.72
2021-12-10 18:47:00,,0812.9,5.00,0.00,22.9,22.3,00.0,31.7,24.7,13.6,0000.0,0013.11,0004.52,0003.70
2021-12-10 18:48:00,,0812.9,5.00,0.00,22.9,22.2,00.0,31.8,24.7,13.3,0000.0,0013.12,0004.53,0003.71
2021-12-10 18:49:00,,0812.9,5.00,0.00,22.9,22.2,00.0,31.8,24.7,13.2,0000.0,0013.13,0004.55,0003.70
2021-12-10 18:50:00,,0812.9,5.00,0.00,22.9,22.2,00.0,31.8,24.6,13.3,0000.0,0013.84,0004.58,0003.71
2021-12-10 18:51:00,,0812.9,5.00,0.00,22.8,22.2,00.0,31.8,24.6,13.3,0000.0,0014.08,0004.59,0003.71
2021-12-10 18:52:00,,0812.9,5.01,0.00,22.8,22.2,00.0,31.8,24.6,13.4,0000.0,0014.89,0004.63,0003.73
2021-12-10 18:53:00,,0812.9,4.99,0.00,22.8,22.1,00.0,31.8,24.5,13.5,0000.0,0013.31,0004.70,0003.75
2021-12-10 18:54:00,,0812.8,5.02,0.00,22.8,22.1,00.0,31.8,24.5,13.5,0000.0,0013.20,0004.71,0003.76
2021-12-10 18:55:00,,0812.8,4.99,0.00,22.8,22.1,00.0,31.8,24.5,13.6,0000.0,0012.68,0004.74,0003.78
2021-12-10 18:56:00,,0812.8,5.01,0.00,22.8,22.1,00.0,31.8,24.5,13.5,0000.0,0012.60,0004.81,0003.79
2021-12-10 18:57:00,,0812.9,4.99,0.00,22.8,22.1,00.0,31.8,24.5,13.7,0000.0,0013.44,0004.86,0003.79
2021-12-10 18:58:00,,0812.9,5.00,0.00,22.8,22.1,00.0,31.8,24.5,13.5,0000.0,0013.81,0004.91,0003.81
2021-12-10 18:59:00,,0812.9,5.01,0.00,22.7,22.0,00.0,31.8,24.5,13.4,0000.0,0014.37,0004.93,0003.81
